Погода в Орске

Россия / Оренбургская область     51°13′45″N   58°28′30″E
темп.,
°C
ветер,
м/с
пор.,
м/с
влажн.,
%
обл.,
%
осадки,
мм/ч
давл.,
гПа
погр.,
м
8 августа, пн
пн823:00+23ссв375190 0.0 1017209
02:00+21ссв4862100 0.0 1017254
05:00+19ссв376864 0.0 1017198
08:00+21ссв476292 0.0 1018359
11:00+23св585534 0.0 1018736
14:00+27св464176 0.0 10161887
17:00+26ссв4646100 0.3 10161093
20:00+25всв3547100 0.1 1016657
9 августа, вт
вт923:00+22ссв36545 0.1 1017217
02:00+20всв355888 0.0 1017137
05:00+19ссв35555 0.0 1017133
08:00+21ссв35527 0.0 1018330
11:00+25св57415 0.0 10171740
14:00+25св564189 0.0 10171838
17:00+28св573020 0.0 10162571
20:00+25св584146 0.0 1017663
10 августа, ср
ср1023:00+21св37520 0.0 1017215
02:00+20с34565 0.0 1018110
05:00+19с35610 0.0 1018136
08:00+21ссв34540 0.0 1019273
11:00+27св34382 0.0 10181544
14:00+29ссв34285 0.0 10182671
17:00+30ссв44255 0.0 10172905
20:00+28ссв342923 0.0 10171020
11 августа, чт
чт1123:00+24ссз24455 0.0 1017110
02:00+23ссв124967 0.0 101754
05:00+22ссз115162 0.0 101816
08:00+24зсз114790 0.0 1019142
11:00+28юз11340 0.0 1018934
14:00+31юз122740 0.0 10182787
17:00+32юв132410 0.0 10172920
20:00+28зсз233598 0.0 1017387
12 августа, пт
пт1223:00+27ю113747 0.0 101775
02:00+25юз344432 0.1 101687
05:00+23с2350100 0.3 1017102
08:00+25зюз2344100 0.1 1017209
11:00+28з5737100 0.1 1016785
14:00+32зсз59285 0.0 10152725
17:00+31сз9112666 0.0 10143231
20:00+25ссз793328 0.0 1016670